TimeCST,TemperatureF,Dew PointF,Humidity,Sea Level PressureIn,VisibilityMPH,Wind Direction,Wind SpeedMPH,Gust SpeedMPH,PrecipitationIn,Events,Conditions,WindDirDegrees,DateUTC
12:15 AM,30.0,25.3,83,30.30,10.0,South,8.1,-,N/A,,Clear,180,2012-11-29 06:15:00
12:35 AM,30.2,25.3,82,30.30,10.0,South,6.9,-,N/A,,Clear,180,2012-11-29 06:35:00
12:55 AM,29.3,25.0,84,30.30,10.0,South,9.2,-,N/A,,Clear,180,2012-11-29 06:55:00
1:15 AM,30.2,25.5,83,30.30,10.0,South,6.9,-,N/A,,Clear,190,2012-11-29 07:15:00
1:35 AM,29.7,25.2,83,30.30,10.0,South,6.9,-,N/A,,Clear,180,2012-11-29 07:35:00
1:55 AM,29.7,25.3,84,30.30,10.0,South,6.9,-,N/A,,Clear,180,2012-11-29 07:55:00
2:15 AM,29.8,25.3,83,30.31,10.0,South,6.9,-,N/A,,Clear,180,2012-11-29 08:15:00
2:35 AM,29.7,25.3,84,30.31,10.0,South,6.9,-,N/A,,Clear,180,2012-11-29 08:35:00
2:55 AM,29.7,25.3,84,30.31,10.0,South,6.9,-,N/A,,Clear,180,2012-11-29 08:55:00
3:15 AM,30.2,25.5,83,30.30,10.0,South,8.1,-,N/A,,Clear,180,2012-11-29 09:15:00
3:35 AM,30.2,25.7,83,30.29,10.0,South,9.2,-,N/A,,Clear,180,2012-11-29 09:35:00
3:55 AM,30.7,26.1,83,30.29,10.0,South,8.1,-,N/A,,Clear,190,2012-11-29 09:55:00
4:15 AM,30.7,25.9,82,30.28,10.0,South,10.4,-,N/A,,Clear,180,2012-11-29 10:15:00
4:35 AM,30.6,25.7,82,30.28,10.0,South,10.4,-,N/A,,Clear,180,2012-11-29 10:35:00
4:55 AM,30.0,25.5,83,30.28,10.0,South,9.2,-,N/A,,Clear,180,2012-11-29 10:55:00
5:15 AM,29.3,24.8,83,30.27,10.0,South,8.1,-,N/A,,Clear,180,2012-11-29 11:15:00
5:35 AM,29.3,24.8,83,30.27,10.0,South,10.4,-,N/A,,Clear,180,2012-11-29 11:35:00
5:55 AM,28.9,24.6,84,30.27,10.0,South,9.2,-,N/A,,Clear,180,2012-11-29 11:55:00
6:15 AM,29.1,24.6,83,30.27,10.0,South,11.5,-,N/A,,Clear,170,2012-11-29 12:15:00
6:35 AM,29.1,24.6,83,30.27,10.0,South,10.4,-,N/A,,Clear,180,2012-11-29 12:35:00
6:55 AM,28.4,24.6,86,30.27,10.0,South,8.1,-,N/A,,Clear,170,2012-11-29 12:55:00
7:15 AM,28.9,24.8,84,30.27,10.0,South,8.1,-,N/A,,Clear,180,2012-11-29 13:15:00
7:35 AM,30.2,25.5,83,30.27,10.0,South,9.2,-,N/A,,Clear,170,2012-11-29 13:35:00
7:55 AM,31.6,26.1,80,30.26,10.0,South,10.4,17.3,N/A,,Clear,170,2012-11-29 13:55:00
8:15 AM,32.5,27.1,80,30.26,10.0,South,11.5,-,N/A,,Clear,180,2012-11-29 14:15:00
8:35 AM,34.5,28.4,78,30.26,10.0,South,10.4,-,N/A,,Clear,180,2012-11-29 14:35:00
8:55 AM,36.5,29.3,75,30.25,10.0,South,12.7,17.3,N/A,,Clear,180,2012-11-29 14:55:00
9:15 AM,38.3,30.6,74,30.24,10.0,South,16.1,-,N/A,,Clear,180,2012-11-29 15:15:00
9:35 AM,40.5,31.5,70,30.24,10.0,South,17.3,-,N/A,,Clear,190,2012-11-29 15:35:00
9:55 AM,42.8,32.0,66,30.24,10.0,South,13.8,-,N/A,,Clear,190,2012-11-29 15:55:00
10:15 AM,43.3,32.2,65,30.23,10.0,South,12.7,-,N/A,,Clear,180,2012-11-29 16:15:00
10:35 AM,45.1,32.9,62,30.23,10.0,South,16.1,19.6,N/A,,Clear,190,2012-11-29 16:35:00
10:55 AM,47.5,33.8,59,30.22,10.0,SSW,13.8,17.3,N/A,,Clear,200,2012-11-29 16:55:00
11:15 AM,48.0,34.0,58,30.21,10.0,South,13.8,19.6,N/A,,Clear,190,2012-11-29 17:15:00
11:35 AM,48.9,34.0,56,30.20,10.0,SSW,16.1,-,N/A,,Clear,200,2012-11-29 17:35:00
11:55 AM,49.6,34.3,56,30.18,10.0,SSW,13.8,-,N/A,,Clear,200,2012-11-29 17:55:00
12:15 PM,50.7,34.3,53,30.17,10.0,SSW,13.8,20.7,N/A,,Clear,210,2012-11-29 18:15:00
12:35 PM,51.1,34.2,52,30.17,10.0,SSW,16.1,20.7,N/A,,Clear,200,2012-11-29 18:35:00
12:55 PM,51.8,34.9,53,30.16,10.0,South,15.0,19.6,N/A,,Clear,180,2012-11-29 18:55:00
1:15 PM,51.8,34.2,51,30.15,10.0,SSW,12.7,21.9,N/A,,Clear,200,2012-11-29 19:15:00
1:35 PM,51.8,34.3,51,30.15,10.0,South,16.1,20.7,N/A,,Clear,190,2012-11-29 19:35:00
1:55 PM,51.8,34.3,51,30.14,10.0,South,13.8,-,N/A,,Clear,180,2012-11-29 19:55:00
2:15 PM,52.2,34.3,51,30.13,10.0,South,16.1,-,N/A,,Clear,190,2012-11-29 20:15:00
2:35 PM,51.8,34.7,52,30.13,10.0,South,11.5,-,N/A,,Clear,190,2012-11-29 20:35:00
2:55 PM,51.3,34.7,53,30.12,10.0,South,12.7,16.1,N/A,,Clear,170,2012-11-29 20:55:00
3:15 PM,50.4,34.7,55,30.12,10.0,South,9.2,-,N/A,,Clear,170,2012-11-29 21:15:00
3:35 PM,49.8,34.7,56,30.12,10.0,South,8.1,-,N/A,,Clear,170,2012-11-29 21:35:00
3:55 PM,49.5,34.3,56,30.12,10.0,South,9.2,-,N/A,,Clear,170,2012-11-29 21:55:00
4:15 PM,48.4,34.2,58,30.12,10.0,SSE,6.9,-,N/A,,Clear,160,2012-11-29 22:15:00
4:35 PM,46.9,34.2,61,30.11,10.0,SE,8.1,-,N/A,,Clear,140,2012-11-29 22:35:00
4:55 PM,46.6,34.2,62,30.11,10.0,SSE,9.2,-,N/A,,Clear,150,2012-11-29 22:55:00
5:15 PM,45.9,34.2,64,30.11,10.0,SSE,9.2,-,N/A,,Clear,150,2012-11-29 23:15:00
5:35 PM,45.9,34.2,64,30.12,10.0,SSE,9.2,-,N/A,,Clear,150,2012-11-29 23:35:00
5:55 PM,44.4,34.0,67,30.12,10.0,SE,4.6,-,N/A,,Clear,130,2012-11-29 23:55:00
6:15 PM,44.6,34.2,67,30.13,10.0,SSE,6.9,-,N/A,,Clear,150,2012-11-30 00:15:00
6:35 PM,44.2,34.0,67,30.14,10.0,SSE,4.6,-,N/A,,Clear,150,2012-11-30 00:35:00
6:55 PM,39.6,32.9,77,30.14,10.0,SE,3.5,-,N/A,,Clear,140,2012-11-30 00:55:00
7:15 PM,37.4,32.5,83,30.14,10.0,ESE,5.8,-,N/A,,Clear,120,2012-11-30 01:15:00
7:35 PM,38.8,33.1,80,30.14,10.0,ESE,5.8,-,N/A,,Clear,120,2012-11-30 01:35:00
7:55 PM,39.9,33.1,77,30.13,10.0,SE,6.9,-,N/A,,Clear,130,2012-11-30 01:55:00
8:15 PM,39.7,32.5,75,30.13,10.0,SE,4.6,-,N/A,,Clear,130,2012-11-30 02:15:00
8:35 PM,38.5,32.0,78,30.13,10.0,ESE,3.5,-,N/A,,Clear,110,2012-11-30 02:35:00
8:55 PM,35.6,31.6,85,30.13,10.0,ESE,6.9,-,N/A,,Clear,110,2012-11-30 02:55:00
9:15 PM,36.1,31.8,84,30.13,10.0,ESE,6.9,-,N/A,,Clear,120,2012-11-30 03:15:00
9:35 PM,35.2,31.5,86,30.12,10.0,SE,6.9,-,N/A,,Clear,130,2012-11-30 03:35:00
9:55 PM,35.2,31.3,85,30.12,10.0,ESE,5.8,-,N/A,,Clear,120,2012-11-30 03:55:00
10:15 PM,35.4,31.5,85,30.12,10.0,ESE,6.9,-,N/A,,Clear,120,2012-11-30 04:15:00
10:35 PM,36.0,31.6,84,30.11,10.0,ESE,6.9,-,N/A,,Clear,120,2012-11-30 04:35:00
10:55 PM,35.8,31.6,85,30.12,10.0,ESE,5.8,-,N/A,,Clear,120,2012-11-30 04:55:00
11:15 PM,35.4,31.6,86,30.11,10.0,ESE,6.9,-,N/A,,Clear,120,2012-11-30 05:15:00
11:35 PM,35.1,31.6,87,30.11,10.0,SE,3.5,-,N/A,,Scattered Clouds,130,2012-11-30 05:35:00
11:55 PM,34.9,31.5,87,30.11,10.0,SSE,3.5,-,N/A,,Scattered Clouds,150,2012-11-30 05:55:00